Tracking 25703 objects as of 3-Jul-2022
HD Live streaming from Space Station
objects crossing your sky now

INSAT 3A

Track INSAT 3A now!
INSAT 3A is classified as:


NORAD ID: 27714
Int'l Code: 2003-013A
Perigee: 35,880.6 km
Apogee: 35,972.1 km
Inclination: 5.3 °
Period: 1,442.9 minutes
Semi major axis: 42297 km
RCS: 22.0529 m2 (large)
Launch date: April 9, 2003
Source: India (IND)
Launch site: FRENCH GUIANA (FRGUI)

12 C-band, 6 extended C-band, 6 Ku-band for voice, video and data transmission to West Asia, East Asia, India; augment present INSAT capacity for communication and meteorological services.
aabbcc
Your satellite tracking list
Your tracking list is empty




NASA's NSSDC Master Catalog

Two Line Element Set (TLE):
1 27714U 03013A   22183.59582928  .00000095  00000-0  00000-0 0  9996
2 27714   5.3162  75.4958 0010811 317.9586 334.3386  0.99800666 70290
Source of the keplerian elements: AFSPC